LA8QT Lodingen NO current weather conditions

sailwx.info

Wind from 319

Air temperature 9.4° C
Dewpoint 5.2° C

Last reported at 2017-Aug-22 06:55 UTC.
Time now 2017-Aug-22 07:20 UTC

Location: N 68°28' E 016°04'.
View on Google Maps.

See reports from other nearby stations

  
Tides and Currents Weather Stations Pressure Air Temp Water Temp Dewpoint Dewpoint Depression Visibility Wind Speed Wind Dir Waves Ship Positions
date/time (UTC)wind fromknots sea level pressurealtimeterstation pressurevisibilityair tempwater tempwave heightnotes
2017-Aug-22 06:55 319 9.4
2017-Aug-22 06:40 319 9.4
2017-Aug-22 06:25 320 9.4
2017-Aug-22 06:10 320 9.4
2017-Aug-22 05:55 320 8.9
2017-Aug-22 05:40 320 8.9
2017-Aug-22 05:25 320 8.9
2017-Aug-22 05:10 320 8.3
2017-Aug-22 04:55 320 7.8
2017-Aug-22 04:40 321 7.8
2017-Aug-22 04:25 321 7.8
2017-Aug-22 04:10 321 7.8
2017-Aug-22 03:55 321 8.3
2017-Aug-22 03:40 320 8.3
2017-Aug-22 03:31 319 0 7.8
2017-Aug-22 03:12 319 1 7.2
2017-Aug-22 02:55 319 2 7.2
2017-Aug-22 02:40 319 3 6.7
2017-Aug-22 02:25 319 7.2
2017-Aug-22 02:10 319 0 7.2
2017-Aug-22 01:55 319 2 6.7
2017-Aug-22 01:40 319 3 6.7
2017-Aug-22 01:25 319 3 6.1
2017-Aug-22 01:10 319 3 6.1
2017-Aug-22 00:55 319 2 6.1
2017-Aug-22 00:40 319 2 6.1
2017-Aug-22 00:25 346 7.2
2017-Aug-22 00:10 346 3 8.3
2017-Aug-21 23:55 343 1 7.8
2017-Aug-21 23:40 006 2 7.8
2017-Aug-21 23:25 322 3 7.2
2017-Aug-21 23:10 318 4 7.2
2017-Aug-21 22:55 314 4 7.2
2017-Aug-21 22:40 338 3 6.7
2017-Aug-21 22:25 339 7.2
2017-Aug-21 22:10 339 2 7.2
2017-Aug-21 21:55 011 7.2
2017-Aug-21 21:40 011 7.2
2017-Aug-21 21:25 011 7.8
2017-Aug-21 21:09 019 4 8.3
2017-Aug-21 20:54 025 8 8.3
2017-Aug-21 20:40 031 7 8.3
2017-Aug-21 20:24 024 9 8.3
2017-Aug-21 20:10 029 8 8.9
2017-Aug-21 19:54 033 9 8.9
2017-Aug-21 19:39 033 7 8.9
2017-Aug-21 19:24 354 5 8.9
2017-Aug-21 19:09 354 4 8.9
2017-Aug-21 18:55 346 4 8.9
2017-Aug-21 18:39 350 4 8.9
2017-Aug-21 18:24 333 7 8.9
2017-Aug-21 18:09 351 6 8.9
2017-Aug-21 17:54 321 6 9.4
2017-Aug-21 17:40 351 6 9.4
2017-Aug-21 17:24 348 6 9.4
2017-Aug-21 17:09 350 6 9.4
2017-Aug-21 16:54 295 6 9.4
2017-Aug-21 16:39 352 6 10.0
2017-Aug-21 16:24 341 6 10.0
2017-Aug-21 16:09 344 6 10.0
2017-Aug-21 15:54 331 5 10.0
2017-Aug-21 15:39 354 1 10.0
2017-Aug-21 15:24 316 3 10.0
2017-Aug-21 15:09 329 6 10.0
2017-Aug-21 14:54 321 6 10.0
2017-Aug-21 14:39 348 6 10.0
2017-Aug-21 14:24 324 7 10.0
2017-Aug-21 14:09 295 7 10.0
2017-Aug-21 13:54 350 6 10.0
2017-Aug-21 13:39 327 6 9.4
2017-Aug-21 13:25 011 8 9.4
2017-Aug-21 13:09 358 9 9.4
2017-Aug-21 12:54 324 10 10.0
2017-Aug-21 12:39 006 8 10.6
2017-Aug-21 12:24 358 6 10.6
2017-Aug-21 12:09 347 8 10.6
2017-Aug-21 11:54 295 6 10.6
2017-Aug-21 11:39 004 7 10.6
2017-Aug-21 11:24 002 7 10.0
2017-Aug-21 11:09 350 7 10.0
2017-Aug-21 10:54 357 8 10.0
2017-Aug-21 10:39 007 9 10.0
2017-Aug-21 10:24 339 8 10.0
2017-Aug-21 10:09 350 8 10.0
2017-Aug-21 09:54 341 9 10.0
2017-Aug-21 09:39 010 9 10.0
2017-Aug-21 09:24 350 9 10.0
2017-Aug-21 09:09 339 8 10.0
2017-Aug-21 08:54 013 7 9.4
2017-Aug-21 08:39 333 9 9.4
2017-Aug-21 08:24 295 9 9.4
2017-Aug-21 08:09 005 7 9.4
2017-Aug-21 07:54 352 8 9.4
2017-Aug-21 07:39 348 8 9.4
2017-Aug-21 07:24 344 9 9.4
2017-Aug-21 07:09 346 8 9.4
2017-Aug-21 06:54 359 7 9.4
2017-Aug-21 06:39 295 9 9.4
2017-Aug-21 06:24 017 6 9.4
2017-Aug-21 06:09 339 7 9.4
2017-Aug-21 05:54 341 8 9.4
2017-Aug-21 05:39 354 6 8.9
2017-Aug-21 05:24 347 7 8.9
2017-Aug-21 05:09 333 8 8.9
2017-Aug-21 04:54 337 10 8.9
2017-Aug-21 04:39 358 11 8.9
2017-Aug-21 04:24 013 10 8.9
2017-Aug-21 04:09 340 11 8.9
2017-Aug-21 03:54 011 10 8.9
2017-Aug-21 03:39 355 11 8.9
2017-Aug-21 03:24 315 11 8.9
2017-Aug-21 03:09 336 13 9.4
2017-Aug-21 02:54 007 13 9.4
2017-Aug-21 02:39 009 13 9.4
2017-Aug-21 02:24 295 12 9.4
2017-Aug-21 02:09 337 11 9.4
2017-Aug-21 01:53 344 6 10.0
2017-Aug-21 01:38 356 9 10.0
2017-Aug-21 01:24 358 10 10.0
2017-Aug-21 01:08 345 10 10.0
2017-Aug-21 00:53 356 10 10.0
2017-Aug-21 00:38 323 13 10.0
2017-Aug-21 00:23 352 13 10.6
2017-Aug-21 00:08 336 13 10.6
2017-Aug-20 23:53 018 14 10.6
2017-Aug-20 23:38 009 14 10.6
2017-Aug-20 23:23 359 15 10.6
2017-Aug-20 23:08 354 13 10.6
2017-Aug-20 22:53 348 17 10.6
2017-Aug-20 22:38 327 17 11.1
2017-Aug-20 22:23 338 18 11.1
2017-Aug-20 22:08 004 18 11.7
2017-Aug-20 21:53 333 17 11.7
2017-Aug-20 21:38 019 22 11.7
2017-Aug-20 21:23 019 19 11.7
2017-Aug-20 21:08 015 19 12.2
2017-Aug-20 20:53 360 16 12.2
2017-Aug-20 20:38 349 13 11.7
2017-Aug-20 20:23 356 13 11.7
2017-Aug-20 20:08 015 19 12.2
2017-Aug-20 19:53 017 22 11.7
2017-Aug-20 19:38 014 20 11.7
2017-Aug-20 19:23 015 16 12.2
2017-Aug-20 19:08 351 17 11.7
2017-Aug-20 18:53 017 18 11.7
2017-Aug-20 18:38 348 15 12.2
2017-Aug-20 18:23 009 17 12.2
2017-Aug-20 18:08 311 15 12.8
2017-Aug-20 17:53 355 13 12.8
2017-Aug-20 17:38 336 13 12.8
2017-Aug-20 17:23 335 16 12.8
2017-Aug-20 17:08 356 13 12.2
2017-Aug-20 16:53 010 15 12.2
2017-Aug-20 16:38 019 13 12.2
2017-Aug-20 16:23 347 13 12.2
2017-Aug-20 16:08 015 13 11.7
2017-Aug-20 15:53 010 13 11.7
2017-Aug-20 15:38 350 13 12.2
2017-Aug-20 15:23 358 13 12.8
2017-Aug-20 15:07 349 11 12.8
2017-Aug-20 14:52 346 9 12.8
2017-Aug-20 14:37 333 10 12.8
2017-Aug-20 14:22 350 8 12.8
2017-Aug-20 14:07 360 9 12.8
2017-Aug-20 13:52 356 10 12.8
2017-Aug-20 13:37 356 11 12.8
2017-Aug-20 13:22 005 11 12.8
2017-Aug-20 13:07 013 11 12.8
2017-Aug-20 12:52 352 8 12.8
2017-Aug-20 12:37 323 10 12.8
2017-Aug-20 12:22 346 9 12.8
2017-Aug-20 12:08 357 9 12.8
2017-Aug-20 11:52 344 11 12.8
2017-Aug-20 11:37 007 11 12.8
2017-Aug-20 11:22 323 12 12.8
2017-Aug-20 11:07 342 11 12.8
2017-Aug-20 10:52 333 11 12.8
2017-Aug-20 10:37 346 9 13.3
2017-Aug-20 10:22 295 9 12.8
2017-Aug-20 10:07 325 12 12.8
2017-Aug-20 09:52 333 13 12.8
2017-Aug-20 09:37 352 12 13.3
2017-Aug-20 09:22 002 13 13.3
2017-Aug-20 09:07 348 14 13.3
2017-Aug-20 08:52 338 13 13.3
2017-Aug-20 08:37 332 13 13.9
2017-Aug-20 08:22 335 15 13.9
2017-Aug-20 08:07 011 15 13.9
2017-Aug-20 07:52 295 14 14.4
2017-Aug-20 07:37 025 13 14.4
2017-Aug-20 07:22 335 13 13.9
2017-Aug-20 07:07 348 13 13.9